#timestamp,LO_Frequency,Hit,StdDev 
1652022015.8,286047003.3,N
1652022035.6,286047002.9,N
1652022055.4,286046999.9,N
1652022075.3,286047000.0,N
1652022095.1,286047004.3,N
1652022115.8,286047005.6,N
1652022135.7,286047002.9,N
1652022155.5,286047005.6,N
1652022175.4,286047005.8,N
1652022195.2,286047005.8,N
1652022215.0,286047005.5,N
1652022215.9,286047005.5,N
1652022235.8,286047004.5,N
1652022255.6,286047006.8,N
1652022275.5,286047005.1,N
1652022295.3,286047003.2,N
1652022315.1,286047004.8,N
1652022335.9,286047003.1,N
1652022355.7,286047002.7,N
1652022375.5,286047001.1,N
1652022395.4,286047000.3,N
1652022415.2,286046998.3,N
1652022435.1,286046997.1,N
1652022436.0,286046997.1,N
1652022455.8,286046996.9,N
1652022475.6,286046999.2,N
1652022495.5,286047000.0,N
1652022515.3,286047001.3,N
1652022535.2,286047003.9,N
1652022555.9,286047004.6,N
1652022575.7,286047006.7,N
1652022595.6,286047008.4,N
1652022615.4,286047005.0,N
1652022635.2,286047005.7,N
1652022655.1,286047003.6,N
1652022656.0,286047003.6,N
1652022675.8,286047003.0,N
1652022695.7,286047006.9,N
1652022715.5,286047008.7,N
1652022735.3,286047009.1,N
1652022755.2,286047007.2,N
1652022775.0,286047003.5,N
1652022775.9,286047003.5,N
1652022795.8,286047001.5,N
1652022815.6,286047004.1,N
1652022835.4,286047004.7,N
1652022855.3,286047010.4,Y
1652022875.1,286047008.0,P
1652022895.9,286047009.1,P
1652022915.7,286047006.5,N
1652022935.5,286047007.1,Y
1652022955.4,286046995.5,P
1652022975.2,286046991.8,N
1652022995.0,286046994.1,N
1652022995.9,286046994.1,N
1652023015.8,286046995.7,N
1652023035.6,286046993.8,N
1652023055.5,286046995.5,N
1652023075.3,286046997.9,N
1652023095.1,286046995.8,N
1652023115.9,286046993.6,N
1652023135.7,286046995.1,N
1652023155.5,286046993.3,N
1652023175.4,286046994.1,N
1652023195.2,286046995.5,N
1652023215.1,286046998.8,N
1652023216.0,286046998.8,N
1652023235.8,286047001.2,N
1652023255.6,286046997.0,N
1652023275.5,286046995.6,N
1652023295.3,286046993.9,N
1652023315.1,286046992.5,N
1652023335.9,286046995.2,N
1652023355.7,286046998.5,N
1652023375.6,286047000.0,N
1652023395.4,286046997.4,N
1652023415.2,286046996.0,N
1652023435.1,286046995.6,N
1652023436.0,286046995.6,N
1652023455.8,286046993.6,N
1652023475.7,286046993.7,N
1652023495.5,286046999.0,N
1652023515.3,286046995.7,N
1652023535.2,286046996.3,N
1652023555.0,286046998.0,N
1652023555.9,286046998.0,N
1652023575.7,286046996.6,N
1652023595.6,286046999.0,N
1652023615.4,286046996.9,N
1652023635.3,286046994.3,N
1652023655.1,286046991.7,Y
1652023675.8,286046999.5,P
1652023695.7,286046994.6,P
1652023715.5,286046993.4,P
1652023735.4,286046995.9,N
1652023755.2,286047000.6,N
1652023775.0,286047002.8,N
1652023775.9,286047002.8,N
1652023795.8,286047001.5,N
1652023815.6,286047001.4,N
1652023835.4,286047005.9,N
1652023855.3,286047005.0,N
1652023875.1,286047004.4,N
1652023895.9,286047000.4,N
1652023915.7,286046998.3,N
1652023935.5,286046995.8,N
1652023955.4,286046996.9,N
1652023975.2,286047000.4,N
1652023995.0,286047000.9,N
1652023995.9,286047000.9,N
1652024015.8,286047004.2,N
1652024035.6,286047005.7,N
1652024055.5,286047005.0,N
1652024075.3,286047003.3,N
1652024095.1,286046998.1,N
1652024115.9,286046998.9,N
1652024135.7,286046999.4,N
1652024155.5,286046997.4,N
1652024175.4,286046993.7,N
1652024195.2,286046995.2,N
1652024215.1,286047000.4,N
1652024216.0,286047000.4,N
1652024235.8,286047002.1,N
1652024255.6,286046997.3,N
1652024275.5,286046997.9,N
1652024295.3,286046998.4,N
1652024315.1,286047002.8,N
1652024335.9,286047000.8,N
1652024355.7,286047002.0,N
1652024375.6,286047002.0,N
1652024395.4,286047004.2,N
1652024415.2,286047002.1,N
1652024435.1,286046999.2,N
1652024436.0,286046999.2,N
1652024455.8,286046996.7,N
1652024475.7,286046999.0,N
1652024495.5,286047001.7,N
1652024515.3,286047001.2,N
1652024535.2,286046999.0,N
1652024555.9,286046997.7,N
1652024575.7,286046994.9,N
1652024595.6,286046996.6,N
1652024615.4,286047001.2,N
1652024635.3,286046998.6,N
1652024655.1,286047000.9,N
1652024656.0,286047000.9,N
1652024675.8,286046997.0,N
1652024695.7,286046996.9,N
1652024715.5,286047000.4,N
1652024735.3,286047000.5,N
1652024755.2,286046996.9,N
1652024775.0,286046993.3,Y
1652024775.9,286046993.3,P
1652024795.8,286046995.6,N
1652024815.6,286046997.7,N
1652024835.4,286046995.6,N
1652024855.3,286046995.2,N
1652024875.1,286046995.2,N
1652024895.9,286046995.7,N
1652024915.7,286046997.6,N
1652024935.5,286046996.2,N
1652024955.4,286046996.3,N
1652024975.2,286046996.5,N
1652024995.0,286046996.7,N
1652024995.9,286046996.7,N
1652025015.8,286046997.0,N
1652025035.6,286046997.0,N
1652025055.5,286046997.2,N
1652025075.3,286046996.0,Y
1652025095.1,286047001.2,P
1652025115.9,286046998.4,N
1652025135.7,286046998.3,N
1652025155.5,286047000.0,N
1652025175.4,286047001.0,N
1652025195.2,286046999.4,N
1652025215.1,286046995.4,N
1652025216.0,286046995.4,N
1652025235.8,286046997.9,N
1652025255.6,286046993.6,Y
1652025275.5,286046997.6,P
1652025295.3,286046995.2,P
1652025315.1,286046997.6,N
1652025335.9,286046999.6,N
1652025355.7,286046996.6,N
1652025375.6,286046998.2,N
1652025395.4,286047000.5,N
1652025415.2,286047002.8,N
1652025435.1,286047001.1,N
1652025436.0,286047001.1,N
1652025455.8,286047000.5,N
1652025475.6,286047001.1,N
1652025495.5,286046997.0,N
1652025515.3,286046999.1,N
1652025535.2,286046997.5,N
1652025555.9,286046997.8,N
1652025575.7,286046997.5,N
1652025595.6,286047001.2,N
